When you browse on this site, cookies collect data to enhance your experience and personalize the content and advertising you see.
Visit our Privacy Policy to learn more. By continuing to use the site, you agree to this use of cookies and data.

Stündliche Wetter 3 internacional

Heute, 9 August, Sonntag

Zeit Temperatur Niederschläge Wind Luftdruck Luftfeuchtigkeit
00:00 +23°C° 0 mm 2 m/S 741 mmHg 43%
01:00 +21°C° 0 mm 2 m/S 741 mmHg 45%
02:00 +21°C° 0 mm 2 m/S 741 mmHg 47%
03:00 +20°C° 0 mm 2 m/S 741 mmHg 49%
04:00 +21°C° 0 mm 1 m/S 740 mmHg 53%
05:00 +22°C° 0 mm 3 m/S 741 mmHg 48%
06:00 +25°C° 0 mm 4 m/S 741 mmHg 42%
07:00 +28°C° 0 mm 5 m/S 741 mmHg 37%
08:00 +30°C° 0 mm 6 m/S 741 mmHg 32%
09:00 +34°C° 0 mm 7 m/S 741 mmHg 27%
10:00 +36°C° 0 mm 7 m/S 741 mmHg 22%
11:00 +38°C° 0 mm 7 m/S 741 mmHg 21%
12:00 +38°C° 0 mm 8 m/S 741 mmHg 20%
13:00 +39°C° 0 mm 8 m/S 741 mmHg 19%
14:00 +39°C° 0 mm 7 m/S 741 mmHg 18%
15:00 +39°C° 0 mm 7 m/S 741 mmHg 17%
16:00 +39°C° 0 mm 6 m/S 741 mmHg 16%
17:00 +36°C° 0 mm 6 m/S 741 mmHg 19%
18:00 +34°C° 0 mm 5 m/S 741 mmHg 22%
19:00 +32°C° 0 mm 5 m/S 741 mmHg 25%
20:00 +29°C° 0 mm 4 m/S 741 mmHg 29%
21:00 +28°C° 0 mm 4 m/S 741 mmHg 32%
22:00 +26°C° 0 mm 4 m/S 741 mmHg 36%
23:00 +26°C° 0 mm 3 m/S 741 mmHg 37%

Morgen, 10 August, Montag

Zeit Temperatur Niederschläge Wind Luftdruck Luftfeuchtigkeit
00:00 +25°C° 0 mm 3 m/S 741 mmHg 39%
01:00 +24°C° 0 mm 2 m/S 741 mmHg 40%
02:00 +24°C° 0 mm 3 m/S 741 mmHg 40%
03:00 +24°C° 0 mm 3 m/S 741 mmHg 40%
04:00 +24°C° 0 mm 3 m/S 741 mmHg 40%
05:00 +26°C° 0 mm 4 m/S 741 mmHg 37%
06:00 +28°C° 0 mm 5 m/S 741 mmHg 35%
07:00 +29°C° 0 mm 6 m/S 741 mmHg 32%
08:00 +32°C° 0 mm 8 m/S 741 mmHg 29%
09:00 +33°C° 0 mm 9 m/S 742 mmHg 25%
10:00 +36°C° 0 mm 11 m/S 742 mmHg 22%
11:00 +36°C° 0 mm 11 m/S 742 mmHg 21%
12:00 +36°C° 0 mm 10 m/S 742 mmHg 19%
13:00 +36°C° 0 mm 10 m/S 742 mmHg 18%
14:00 +34°C° 0 mm 10 m/S 742 mmHg 18%
15:00 +33°C° 0 mm 10 m/S 742 mmHg 18%
16:00 +32°C° 0 mm 11 m/S 742 mmHg 19%
17:00 +29°C° 0 mm 9 m/S 743 mmHg 23%
18:00 +27°C° 0 mm 8 m/S 743 mmHg 26%
19:00 +24°C° 0 mm 6 m/S 743 mmHg 30%
20:00 +24°C° 0 mm 6 m/S 743 mmHg 32%
21:00 +23°C° 0 mm 5 m/S 743 mmHg 34%
22:00 +22°C° 0 mm 5 m/S 743 mmHg 36%
23:00 +21°C° 0 mm 5 m/S 743 mmHg 42%

übermorgen, 11 August, Dienstag

Zeit Temperatur Niederschläge Wind Luftdruck Luftfeuchtigkeit
00:00 +21°C° 0 mm 5 m/S 743 mmHg 48%
01:00 +20°C° 0 mm 5 m/S 743 mmHg 54%
02:00 +20°C° 0 mm 5 m/S 744 mmHg 56%
03:00 +19°C° 0 mm 5 m/S 744 mmHg 59%
04:00 +18°C° 0 mm 4 m/S 744 mmHg 61%
05:00 +20°C° 0 mm 5 m/S 744 mmHg 54%
06:00 +21°C° 0 mm 6 m/S 745 mmHg 47%
07:00 +23°C° 0 mm 7 m/S 745 mmHg 41%
08:00 +26°C° 0 mm 8 m/S 745 mmHg 36%
09:00 +27°C° 0 mm 8 m/S 745 mmHg 32%
10:00 +28°C° 0 mm 8 m/S 745 mmHg 28%
11:00 +29°C° 0 mm 9 m/S 745 mmHg 26%
12:00 +31°C° 0 mm 9 m/S 744 mmHg 23%
13:00 +32°C° 0 mm 9 m/S 744 mmHg 21%
14:00 +32°C° 0 mm 9 m/S 744 mmHg 21%
15:00 +32°C° 0 mm 10 m/S 744 mmHg 21%
16:00 +32°C° 0 mm 10 m/S 744 mmHg 22%
17:00 +29°C° 0 mm 8 m/S 744 mmHg 24%
18:00 +27°C° 0 mm 6 m/S 745 mmHg 27%
19:00 +25°C° 0 mm 5 m/S 745 mmHg 29%
20:00 +23°C° 0 mm 5 m/S 745 mmHg 32%
21:00 +22°C° 0 mm 5 m/S 745 mmHg 35%
22:00 +21°C° 0 mm 5 m/S 745 mmHg 38%
23:00 +20°C° 0 mm 5 m/S 745 mmHg 42%

12 August, Mittwoch

Zeit Temperatur Niederschläge Wind Luftdruck Luftfeuchtigkeit
00:00 +20°C° 0 mm 5 m/S 745 mmHg 45%
01:00 +19°C° 0 mm 5 m/S 745 mmHg 48%
02:00 +19°C° 0 mm 4 m/S 745 mmHg 54%
03:00 +19°C° 0 mm 4 m/S 745 mmHg 60%
04:00 +18°C° 0 mm 4 m/S 745 mmHg 65%
05:00 +20°C° 0 mm 4 m/S 745 mmHg 60%
06:00 +22°C° 0 mm 4 m/S 745 mmHg 55%
07:00 +23°C° 0 mm 5 m/S 746 mmHg 50%
08:00 +26°C° 0 mm 5 m/S 746 mmHg 45%
09:00 +27°C° 0 mm 5 m/S 746 mmHg 41%
10:00 +29°C° 0 mm 6 m/S 746 mmHg 36%
11:00 +30°C° 0 mm 6 m/S 746 mmHg 32%
12:00 +32°C° 0 mm 6 m/S 746 mmHg 28%
13:00 +33°C° 0 mm 6 m/S 745 mmHg 24%
14:00 +33°C° 0 mm 6 m/S 745 mmHg 23%
15:00 +34°C° 0 mm 7 m/S 745 mmHg 21%
16:00 +34°C° 0 mm 7 m/S 745 mmHg 19%
17:00 +32°C° 0 mm 6 m/S 745 mmHg 23%
18:00 +29°C° 0 mm 5 m/S 746 mmHg 26%
19:00 +27°C° 0 mm 4 m/S 746 mmHg 29%
20:00 +26°C° 0 mm 4 m/S 746 mmHg 33%
21:00 +26°C° 0 mm 4 m/S 746 mmHg 37%
22:00 +25°C° 0 mm 4 m/S 746 mmHg 41%
23:00 +24°C° 0 mm 3 m/S 746 mmHg 44%

13 August, Donnerstag

Zeit Temperatur Niederschläge Wind Luftdruck Luftfeuchtigkeit
00:00 +22°C° 0 mm 3 m/S 746 mmHg 46%
01:00 +22°C° 0 mm 3 m/S 746 mmHg 48%
02:00 +21°C° 0 mm 3 m/S 746 mmHg 50%
03:00 +20°C° 0 mm 3 m/S 746 mmHg 51%
04:00 +20°C° 0 mm 3 m/S 746 mmHg 53%
05:00 +21°C° 0 mm 2 m/S 746 mmHg 49%
06:00 +24°C° 0 mm 2 m/S 746 mmHg 45%
07:00 +25°C° 0 mm 2 m/S 747 mmHg 41%
08:00 +27°C° 0 mm 2 m/S 747 mmHg 38%
09:00 +29°C° 0 mm 2 m/S 747 mmHg 34%
10:00 +31°C° 0 mm 2 m/S 747 mmHg 30%
11:00 +31°C° 0 mm 2 m/S 746 mmHg 27%
12:00 +33°C° 0 mm 3 m/S 746 mmHg 24%
13:00 +34°C° 0 mm 3 m/S 746 mmHg 22%
14:00 +35°C° 0 mm 3 m/S 746 mmHg 20%
15:00 +35°C° 0 mm 3 m/S 746 mmHg 19%
16:00 +35°C° 0 mm 3 m/S 746 mmHg 17%
17:00 +33°C° 0 mm 3 m/S 746 mmHg 20%
18:00 +30°C° 0 mm 3 m/S 746 mmHg 22%
19:00 +27°C° 0 mm 3 m/S 746 mmHg 24%
20:00 +26°C° 0 mm 3 m/S 746 mmHg 29%
21:00 +25°C° 0 mm 4 m/S 746 mmHg 34%
22:00 +25°C° 0 mm 4 m/S 746 mmHg 40%
23:00 +23°C° 0 mm 4 m/S 746 mmHg 41%

14 August, Freitag

Zeit Temperatur Niederschläge Wind Luftdruck Luftfeuchtigkeit
00:00 +22°C° 0 mm 4 m/S 746 mmHg 43%
01:00 +21°C° 0 mm 3 m/S 746 mmHg 44%
02:00 +21°C° 0 mm 3 m/S 746 mmHg 45%
03:00 +21°C° 0 mm 3 m/S 745 mmHg 46%
04:00 +20°C° 0 mm 3 m/S 745 mmHg 46%
05:00 +22°C° 0 mm 3 m/S 745 mmHg 42%
06:00 +25°C° 0 mm 3 m/S 746 mmHg 38%
07:00 +27°C° 0 mm 3 m/S 746 mmHg 34%
08:00 +29°C° 0 mm 3 m/S 746 mmHg 30%
09:00 +31°C° 0 mm 3 m/S 746 mmHg 27%
10:00 +32°C° 0 mm 2 m/S 746 mmHg 23%
11:00 +34°C° 0 mm 2 m/S 745 mmHg 21%
12:00 +35°C° 0 mm 2 m/S 745 mmHg 19%
13:00 +36°C° 0 mm 2 m/S 745 mmHg 17%
14:00 +36°C° 0 mm 3 m/S 745 mmHg 17%
15:00 +36°C° 0 mm 4 m/S 744 mmHg 17%
16:00 +36°C° 0 mm 4 m/S 744 mmHg 16%
17:00 +34°C° 0 mm 4 m/S 744 mmHg 19%
18:00 +32°C° 0 mm 4 m/S 744 mmHg 21%
19:00 +29°C° 0 mm 4 m/S 744 mmHg 23%
20:00 +28°C° 0 mm 4 m/S 744 mmHg 24%
21:00 +27°C° 0 mm 4 m/S 744 mmHg 25%
22:00 +26°C° 0 mm 4 m/S 745 mmHg 26%
23:00 +26°C° 0 mm 4 m/S 744 mmHg 27%
Mehr zeigen